SAS49J EKCH-ENGM

Flight info

Callsign SAS49J
Flight time 1h 3m
Altitude 38000
Route VEDAR L997 LASLI DCT SABAK L997 REGMA DCT LUNIP
Aircraft A320/M-SDE3FGHIRWY/LB1

Departure

Time 2026-05-07 14:11
Airport Copenhagen Kastrup Airport (EKCH)

Arrival

Time 2026-05-07 15:15
Airport Oslo-Gardermoen International Airport (ENGM)
Time Latitude Longitude Altitude Speed Heading
2026-05-07 13:40 55.62670 12.64439 17 ft 0 kts 101°
2026-05-07 13:57 55.62673 12.64412 19 ft 2 kts 101°
2026-05-07 13:58 55.62672 12.64383 19 ft 2 kts 75°
2026-05-07 13:58 55.62665 12.64356 18 ft 2 kts 54°
2026-05-07 13:58 55.62655 12.64331 20 ft 2 kts 54°
2026-05-07 13:58 55.62646 12.64306 18 ft 2 kts 28°
2026-05-07 13:59 55.62631 12.64296 18 ft 2 kts 30°
2026-05-07 13:59 55.62622 12.64283 20 ft 2 kts 56°
2026-05-07 13:59 55.62613 12.64259 18 ft 2 kts 56°
2026-05-07 13:59 55.62604 12.64235 17 ft 2 kts 56°
2026-05-07 14:00 55.62600 12.64209 17 ft 2 kts 113°
2026-05-07 14:00 55.62606 12.64183 17 ft 2 kts 113°
2026-05-07 14:00 55.62615 12.64159 17 ft 2 kts 120°
2026-05-07 14:00 55.62623 12.64134 20 ft 2 kts 120°
2026-05-07 14:01 55.62625 12.64127 19 ft 1 kts 126°
2026-05-07 14:01 55.62625 12.64128 19 ft 0 kts 126°
2026-05-07 14:03 55.62617 12.64148 18 ft 5 kts 126°
2026-05-07 14:03 55.62588 12.64210 17 ft 7 kts 150°
2026-05-07 14:03 55.62532 12.64199 17 ft 9 kts 173°
2026-05-07 14:04 55.62488 12.64292 17 ft 11 kts 121°
2026-05-07 14:04 55.62435 12.64415 17 ft 14 kts 129°
2026-05-07 14:04 55.62373 12.64568 17 ft 17 kts 121°
2026-05-07 14:04 55.62307 12.64748 18 ft 16 kts 126°
2026-05-07 14:05 55.62211 12.64774 17 ft 0 kts 208°
2026-05-07 14:06 55.62209 12.64771 17 ft 2 kts 208°
2026-05-07 14:06 55.62165 12.64724 18 ft 13 kts 212°
2026-05-07 14:06 55.62082 12.64625 17 ft 17 kts 214°
2026-05-07 14:07 55.61972 12.64514 17 ft 19 kts 199°
2026-05-07 14:07 55.61831 12.64531 17 ft 22 kts 169°
2026-05-07 14:07 55.61696 12.64572 17 ft 18 kts 171°
2026-05-07 14:07 55.61594 12.64476 19 ft 18 kts 213°
2026-05-07 14:08 55.61482 12.64345 17 ft 21 kts 211°
2026-05-07 14:08 55.61351 12.64201 19 ft 24 kts 212°
2026-05-07 14:08 55.61207 12.64025 17 ft 27 kts 217°
2026-05-07 14:08 55.61044 12.63840 17 ft 29 kts 214°
2026-05-07 14:09 55.60867 12.63640 17 ft 32 kts 214°
2026-05-07 14:09 55.60678 12.63415 18 ft 34 kts 213°
2026-05-07 14:09 55.60536 12.63219 18 ft 19 kts 202°
2026-05-07 14:09 55.60457 12.63276 17 ft 0 kts 131°
2026-05-07 14:10 55.60453 12.63285 17 ft 3 kts 131°
2026-05-07 14:10 55.60428 12.63334 17 ft 7 kts 131°
2026-05-07 14:10 55.60400 12.63437 18 ft 12 kts 79°
2026-05-07 14:10 55.60478 12.63557 17 ft 16 kts 43°
2026-05-07 14:11 55.60601 12.63754 18 ft 47 kts 41°
2026-05-07 14:11 55.61035 12.64421 18 ft 115 kts 41°
2026-05-07 14:11 55.61767 12.65560 121 ft 153 kts 39°
2026-05-07 14:11 55.62591 12.66739 725 ft 157 kts 39°
2026-05-07 14:12 55.63461 12.67999 1345 ft 165 kts 37°
2026-05-07 14:12 55.64401 12.69182 1996 ft 167 kts 31°
2026-05-07 14:12 55.65426 12.70133 2656 ft 166 kts 22°
2026-05-07 14:12 55.66516 12.70752 3251 ft 172 kts
2026-05-07 14:13 55.67794 12.70639 3579 ft 200 kts 352°
2026-05-07 14:13 55.69249 12.70316 4129 ft 221 kts 353°
2026-05-07 14:13 55.70834 12.69989 4771 ft 239 kts 353°
2026-05-07 14:13 55.72558 12.69697 5425 ft 255 kts 355°
2026-05-07 14:14 55.74352 12.69460 6341 ft 261 kts 356°
2026-05-07 14:14 55.76184 12.69251 7220 ft 266 kts 357°
2026-05-07 14:14 55.78045 12.69052 8162 ft 270 kts 357°
2026-05-07 14:14 55.79921 12.68649 9058 ft 275 kts 347°
2026-05-07 14:15 55.81686 12.67267 9904 ft 282 kts 327°
2026-05-07 14:15 55.83136 12.64859 10586 ft 295 kts 310°
2026-05-07 14:15 55.84180 12.61531 10826 ft 323 kts 292°
2026-05-07 14:15 55.84964 12.57716 11457 ft 331 kts 291°
2026-05-07 14:16 55.85779 12.53878 12225 ft 334 kts 291°
2026-05-07 14:16 55.86629 12.50008 13028 ft 336 kts 292°
2026-05-07 14:16 55.87495 12.46127 13858 ft 339 kts 291°
2026-05-07 14:16 55.88355 12.42228 14629 ft 339 kts 291°
2026-05-07 14:17 55.89438 12.38480 15282 ft 343 kts 304°
2026-05-07 14:17 55.91016 12.35264 15938 ft 348 kts 317°
2026-05-07 14:17 55.93016 12.32795 16650 ft 352 kts 330°
2026-05-07 14:17 55.95320 12.31238 17291 ft 358 kts 344°
2026-05-07 14:18 55.97745 12.30123 17968 ft 362 kts 344°
2026-05-07 14:18 56.00195 12.28994 18584 ft 365 kts 343°
2026-05-07 14:18 56.02667 12.27850 19193 ft 369 kts 343°
2026-05-07 14:18 56.05160 12.26692 19802 ft 372 kts 343°
2026-05-07 14:19 56.07651 12.25523 20447 ft 370 kts 343°
2026-05-07 14:19 56.10143 12.24353 21103 ft 371 kts 344°
2026-05-07 14:19 56.12653 12.23562 21776 ft 364 kts 349°
2026-05-07 14:19 56.15160 12.22895 22446 ft 364 kts 349°
2026-05-07 14:20 56.17667 12.22219 23130 ft 364 kts 349°
2026-05-07 14:20 56.20168 12.21533 23805 ft 364 kts 349°
2026-05-07 14:20 56.22670 12.20837 24403 ft 363 kts 349°
2026-05-07 14:20 56.25163 12.20139 25013 ft 362 kts 349°
2026-05-07 14:21 56.27646 12.19446 25622 ft 360 kts 349°
2026-05-07 14:21 56.30115 12.18763 26249 ft 358 kts 349°
2026-05-07 14:21 56.32572 12.18087 26894 ft 355 kts 349°
2026-05-07 14:21 56.35008 12.17417 27550 ft 352 kts 349°
2026-05-07 14:22 56.37415 12.16753 28212 ft 348 kts 349°
2026-05-07 14:22 56.39787 12.16094 28912 ft 343 kts 349°
2026-05-07 14:22 56.42104 12.15452 29608 ft 338 kts 349°
2026-05-07 14:22 56.44405 12.14816 30306 ft 332 kts 350°
2026-05-07 14:23 56.46662 12.14188 30914 ft 324 kts 349°
2026-05-07 14:23 56.48872 12.13568 31412 ft 321 kts 349°
2026-05-07 14:23 56.51092 12.12938 31628 ft 328 kts 349°
2026-05-07 14:23 56.53378 12.12291 31739 ft 337 kts 349°
2026-05-07 14:24 56.55723 12.11632 31862 ft 346 kts 349°
2026-05-07 14:24 56.58130 12.10957 31998 ft 355 kts 349°
2026-05-07 14:24 56.60600 12.10264 32130 ft 364 kts 349°
2026-05-07 14:24 56.63135 12.09561 32265 ft 373 kts 349°
2026-05-07 14:25 56.65732 12.08839 32399 ft 382 kts 349°
2026-05-07 14:25 56.68388 12.08096 32533 ft 390 kts 349°
2026-05-07 14:25 56.71078 12.07333 32639 ft 390 kts 349°
2026-05-07 14:25 56.73746 12.06484 32745 ft 389 kts 348°
2026-05-07 14:26 56.76409 12.05621 32850 ft 388 kts 348°
2026-05-07 14:26 56.79069 12.04764 32957 ft 389 kts 349°
2026-05-07 14:26 56.81773 12.04014 33108 ft 397 kts 349°
2026-05-07 14:26 56.84536 12.03327 33245 ft 405 kts 350°
2026-05-07 14:27 56.87360 12.02635 33384 ft 413 kts 350°
2026-05-07 14:27 56.90223 12.01906 33529 ft 420 kts 349°
2026-05-07 14:27 56.93128 12.01122 33820 ft 422 kts 349°
2026-05-07 14:27 56.96030 12.00302 34232 ft 422 kts 349°
2026-05-07 14:28 56.98930 11.99463 34592 ft 422 kts 349°
2026-05-07 14:28 57.01833 11.98617 34906 ft 423 kts 348°
2026-05-07 14:28 57.04748 11.97766 35210 ft 424 kts 348°
2026-05-07 14:28 57.07668 11.96912 35507 ft 426 kts 348°
2026-05-07 14:29 57.10596 11.96060 35819 ft 426 kts 348°
2026-05-07 14:29 57.13532 11.95208 36112 ft 427 kts 348°
2026-05-07 14:29 57.16474 11.94358 36411 ft 429 kts 348°
2026-05-07 14:29 57.19423 11.93507 36681 ft 430 kts 348°
2026-05-07 14:30 57.22379 11.92658 36947 ft 431 kts 348°
2026-05-07 14:30 57.25346 11.91807 37214 ft 432 kts 348°
2026-05-07 14:30 57.28317 11.90952 37480 ft 433 kts 348°
2026-05-07 14:30 57.31255 11.90104 37741 ft 434 kts 348°
2026-05-07 14:31 57.34238 11.89231 37997 ft 434 kts 348°
2026-05-07 14:31 57.37232 11.88347 38134 ft 436 kts 347°
2026-05-07 14:31 57.40233 11.87460 38115 ft 437 kts 347°
2026-05-07 14:32 57.46241 11.85684 38124 ft 437 kts 347°
2026-05-07 14:32 57.52252 11.83923 38122 ft 437 kts 347°
2026-05-07 14:33 57.58262 11.82160 38113 ft 437 kts 347°
2026-05-07 14:33 57.64269 11.80373 38119 ft 437 kts 347°
2026-05-07 14:34 57.70285 11.78586 38117 ft 438 kts 347°
2026-05-07 14:34 57.76301 11.76790 38118 ft 438 kts 347°
2026-05-07 14:35 57.82330 11.74990 38114 ft 438 kts 347°
2026-05-07 14:35 57.88351 11.73186 38120 ft 438 kts 347°
2026-05-07 14:36 57.94374 11.71364 38148 ft 439 kts 347°
2026-05-07 14:36 58.00401 11.69537 38140 ft 439 kts 347°
2026-05-07 14:37 58.06437 11.67708 38134 ft 439 kts 347°
2026-05-07 14:37 58.15453 11.64948 38133 ft 440 kts 346°
2026-05-07 14:38 58.21493 11.63098 38132 ft 440 kts 347°
2026-05-07 14:38 58.27536 11.61246 38134 ft 440 kts 346°
2026-05-07 14:39 58.33572 11.59384 38134 ft 440 kts 347°
2026-05-07 14:39 58.39615 11.57519 38131 ft 439 kts 346°
2026-05-07 14:40 58.42627 11.56590 37728 ft 438 kts 346°
2026-05-07 14:40 58.45624 11.55663 37175 ft 436 kts 346°
2026-05-07 14:40 58.48612 11.54732 36641 ft 434 kts 346°
2026-05-07 14:40 58.51584 11.53806 36154 ft 431 kts 346°
2026-05-07 14:41 58.54526 11.52889 35698 ft 427 kts 346°
2026-05-07 14:41 58.57446 11.51982 35335 ft 421 kts 346°
2026-05-07 14:41 58.60324 11.51090 34963 ft 416 kts 346°
2026-05-07 14:41 58.63155 11.50209 34603 ft 411 kts 345°
2026-05-07 14:42 58.65957 11.49322 34236 ft 405 kts 345°
2026-05-07 14:42 58.68726 11.48440 33832 ft 401 kts 345°
2026-05-07 14:42 58.71465 11.47564 33359 ft 397 kts 345°
2026-05-07 14:42 58.74173 11.46704 32866 ft 393 kts 345°
2026-05-07 14:43 58.76862 11.45858 32376 ft 390 kts 345°
2026-05-07 14:43 58.79539 11.45011 31909 ft 388 kts 345°
2026-05-07 14:43 58.82188 11.44168 31472 ft 385 kts 344°
2026-05-07 14:43 58.84818 11.43328 31050 ft 382 kts 344°
2026-05-07 14:44 58.87435 11.42487 30605 ft 379 kts 344°
2026-05-07 14:44 58.90030 11.41654 30180 ft 377 kts 344°
2026-05-07 14:44 58.92611 11.40828 29701 ft 375 kts 344°
2026-05-07 14:44 58.95179 11.40009 29238 ft 373 kts 344°
2026-05-07 14:45 58.97731 11.39195 28803 ft 371 kts 344°
2026-05-07 14:45 59.00271 11.38386 28358 ft 369 kts 344°
2026-05-07 14:45 59.02794 11.37578 27961 ft 366 kts 344°
2026-05-07 14:45 59.05301 11.36772 27565 ft 365 kts 344°
2026-05-07 14:46 59.07797 11.35968 27168 ft 362 kts 344°
2026-05-07 14:46 59.10245 11.35177 26775 ft 361 kts 344°
2026-05-07 14:46 59.12697 11.34292 26441 ft 356 kts 341°
2026-05-07 14:46 59.15100 11.33250 26069 ft 352 kts 341°
2026-05-07 14:47 59.17522 11.32551 25824 ft 353 kts 350°
2026-05-07 14:47 59.19986 11.32777 25472 ft 358 kts
2026-05-07 14:47 59.22415 11.34018 25066 ft 363 kts 11°
2026-05-07 14:47 59.24816 11.35536 24669 ft 362 kts 11°
2026-05-07 14:48 59.27199 11.37063 24284 ft 360 kts 11°
2026-05-07 14:48 59.28803 11.38092 24023 ft 359 kts 11°
2026-05-07 14:48 59.31168 11.39602 23627 ft 357 kts 11°
2026-05-07 14:48 59.33525 11.41097 23186 ft 355 kts 11°
2026-05-07 14:49 59.35867 11.42579 22747 ft 352 kts 11°
2026-05-07 14:49 59.38191 11.44052 22332 ft 350 kts 11°
2026-05-07 14:49 59.40468 11.45495 21962 ft 348 kts 11°
2026-05-07 14:49 59.42758 11.46943 21562 ft 345 kts 11°
2026-05-07 14:50 59.45038 11.48377 21148 ft 343 kts 11°
2026-05-07 14:50 59.47339 11.49825 20746 ft 341 kts 11°
2026-05-07 14:50 59.49587 11.51247 20351 ft 339 kts 11°
2026-05-07 14:50 59.51800 11.52652 19971 ft 337 kts 12°
2026-05-07 14:51 59.54030 11.54064 19600 ft 336 kts 12°
2026-05-07 14:51 59.56244 11.55463 19226 ft 334 kts 12°
2026-05-07 14:51 59.58477 11.56872 18850 ft 332 kts 12°
2026-05-07 14:51 59.60672 11.58260 18479 ft 330 kts 12°
2026-05-07 14:52 59.62856 11.59647 18082 ft 329 kts 12°
2026-05-07 14:52 59.64996 11.61013 17700 ft 327 kts 12°
2026-05-07 14:52 59.67153 11.62396 17347 ft 325 kts 12°
2026-05-07 14:52 59.69326 11.63783 16954 ft 323 kts 12°
2026-05-07 14:53 59.71460 11.65147 16583 ft 321 kts 13°
2026-05-07 14:53 59.73549 11.66491 16220 ft 319 kts 13°
2026-05-07 14:53 59.75654 11.67846 15873 ft 317 kts 13°
2026-05-07 14:53 59.77744 11.69191 15531 ft 315 kts 13°
2026-05-07 14:54 59.79825 11.70530 15188 ft 313 kts 13°
2026-05-07 14:54 59.81892 11.71859 14836 ft 312 kts 13°
2026-05-07 14:54 59.83950 11.73181 14497 ft 310 kts 14°
2026-05-07 14:54 59.85995 11.74502 14172 ft 308 kts 14°
2026-05-07 14:55 59.88023 11.75821 14014 ft 307 kts 14°
2026-05-07 14:55 59.90056 11.77140 13866 ft 307 kts 14°
2026-05-07 14:55 59.92089 11.78460 13699 ft 307 kts 14°
2026-05-07 14:55 59.94118 11.79772 13550 ft 306 kts 14°
2026-05-07 14:56 59.96140 11.81084 13382 ft 305 kts 14°
2026-05-07 14:56 59.98157 11.82388 13210 ft 305 kts 14°
2026-05-07 14:56 60.00168 11.83699 13022 ft 303 kts 14°
2026-05-07 14:56 60.02166 11.85015 12830 ft 302 kts 15°
2026-05-07 14:57 60.04157 11.86332 12643 ft 301 kts 15°
2026-05-07 14:57 60.06142 11.87643 12450 ft 300 kts 15°
2026-05-07 14:57 60.08115 11.88944 12266 ft 298 kts 15°
2026-05-07 14:57 60.10089 11.90242 12079 ft 298 kts 15°
2026-05-07 14:58 60.12079 11.91218 11897 ft 293 kts
2026-05-07 14:58 60.14096 11.91807 11715 ft 292 kts
2026-05-07 14:58 60.16103 11.92402 11541 ft 291 kts
2026-05-07 14:58 60.18105 11.93004 11352 ft 290 kts
2026-05-07 14:59 60.20096 11.93610 11172 ft 289 kts
2026-05-07 14:59 60.22083 11.94215 11006 ft 288 kts
2026-05-07 14:59 60.24043 11.94812 10829 ft 281 kts
2026-05-07 14:59 60.25947 11.95415 10646 ft 274 kts
2026-05-07 15:00 60.27745 11.96601 10470 ft 269 kts 19°
2026-05-07 15:00 60.29468 11.97925 10286 ft 262 kts 19°
2026-05-07 15:00 60.31133 11.99210 10118 ft 256 kts 19°
2026-05-07 15:00 60.32785 12.00484 9943 ft 253 kts 19°
2026-05-07 15:01 60.34424 12.01742 9748 ft 251 kts 19°
2026-05-07 15:01 60.36065 12.02934 9559 ft 250 kts 13°
2026-05-07 15:01 60.37770 12.03395 9367 ft 247 kts 358°
2026-05-07 15:01 60.39488 12.03399 9170 ft 246 kts 358°
2026-05-07 15:02 60.41200 12.03416 8986 ft 246 kts 359°
2026-05-07 15:02 60.42908 12.03438 8799 ft 245 kts 358°
2026-05-07 15:02 60.44611 12.03462 8605 ft 244 kts 359°
2026-05-07 15:02 60.46309 12.03486 8422 ft 244 kts 358°
2026-05-07 15:03 60.47979 12.03088 8237 ft 241 kts 343°
2026-05-07 15:03 60.49559 12.01984 8042 ft 240 kts 338°
2026-05-07 15:03 60.51126 12.00827 7875 ft 239 kts 338°
2026-05-07 15:03 60.52690 11.99679 7692 ft 238 kts 338°
2026-05-07 15:04 60.54107 11.98023 7489 ft 235 kts 314°
2026-05-07 15:04 60.55005 11.95324 7283 ft 230 kts 288°
2026-05-07 15:04 60.55206 11.92127 7077 ft 230 kts 263°
2026-05-07 15:04 60.54699 11.89058 6883 ft 232 kts 243°
2026-05-07 15:05 60.53954 11.86151 6666 ft 231 kts 244°
2026-05-07 15:05 60.53215 11.83262 6476 ft 231 kts 243°
2026-05-07 15:05 60.52473 11.80363 6289 ft 232 kts 243°
2026-05-07 15:05 60.51728 11.77462 6122 ft 232 kts 243°
2026-05-07 15:06 60.50981 11.74547 5962 ft 233 kts 243°
2026-05-07 15:06 60.50234 11.71638 5805 ft 232 kts 243°
2026-05-07 15:06 60.49491 11.68737 5650 ft 231 kts 243°
2026-05-07 15:06 60.48749 11.65840 5486 ft 232 kts 243°
2026-05-07 15:07 60.48006 11.62951 5328 ft 230 kts 243°
2026-05-07 15:07 60.47268 11.60085 5175 ft 229 kts 243°
2026-05-07 15:07 60.46530 11.57225 5018 ft 230 kts 243°
2026-05-07 15:07 60.45796 11.54396 4864 ft 229 kts 243°
2026-05-07 15:08 60.45053 11.51542 4705 ft 230 kts 242°
2026-05-07 15:08 60.44309 11.48679 4543 ft 229 kts 243°
2026-05-07 15:08 60.43570 11.45834 4380 ft 228 kts 243°
2026-05-07 15:08 60.42833 11.42998 4226 ft 228 kts 242°
2026-05-07 15:09 60.42141 11.40128 4089 ft 226 kts 251°
2026-05-07 15:09 60.41734 11.37052 3983 ft 226 kts 257°
2026-05-07 15:09 60.41354 11.33961 3979 ft 227 kts 256°
2026-05-07 15:09 60.40967 11.30858 3982 ft 226 kts 256°
2026-05-07 15:10 60.40592 11.27855 3976 ft 213 kts 256°
2026-05-07 15:10 60.40060 11.25196 3980 ft 199 kts 234°
2026-05-07 15:10 60.39055 11.23406 3977 ft 193 kts 204°
2026-05-07 15:10 60.37785 11.22536 3980 ft 193 kts 197°
2026-05-07 15:11 60.36501 11.21783 3980 ft 191 kts 197°
2026-05-07 15:11 60.35233 11.21041 3841 ft 189 kts 197°
2026-05-07 15:11 60.33973 11.20303 3597 ft 188 kts 197°
2026-05-07 15:11 60.32719 11.19570 3336 ft 187 kts 198°
2026-05-07 15:12 60.31469 11.18840 3071 ft 186 kts 198°
2026-05-07 15:12 60.30226 11.18117 2827 ft 186 kts 198°
2026-05-07 15:12 60.28984 11.17394 2570 ft 187 kts 198°
2026-05-07 15:12 60.27756 11.16680 2315 ft 177 kts 197°
2026-05-07 15:13 60.26633 11.16028 2099 ft 157 kts 197°
2026-05-07 15:13 60.25637 11.15450 1877 ft 143 kts 197°
2026-05-07 15:13 60.24705 11.14868 1678 ft 139 kts 198°
2026-05-07 15:13 60.23786 11.14331 1501 ft 137 kts 196°
2026-05-07 15:14 60.22863 11.13845 1337 ft 137 kts 195°
2026-05-07 15:14 60.21944 11.13313 1109 ft 137 kts 198°
2026-05-07 15:14 60.21030 11.12764 910 ft 138 kts 196°
2026-05-07 15:14 60.20101 11.12240 736 ft 139 kts 197°
2026-05-07 15:15 60.19228 11.11726 679 ft 113 kts 196°
2026-05-07 15:15 60.18643 11.11386 675 ft 51 kts 195°
2026-05-07 15:15 60.18457 11.11164 675 ft 19 kts 233°
2026-05-07 15:15 60.18451 11.10967 676 ft 14 kts 287°
2026-05-07 15:16 60.18479 11.10792 674 ft 11 kts 306°
2026-05-07 15:16 60.18558 11.10780 677 ft 14 kts 16°
2026-05-07 15:16 60.18667 11.10842 677 ft 18 kts 16°
2026-05-07 15:16 60.18799 11.10920 677 ft 21 kts 17°
2026-05-07 15:17 60.18951 11.11008 678 ft 24 kts 16°
2026-05-07 15:17 60.19101 11.11088 679 ft 14 kts
2026-05-07 15:17 60.19164 11.10978 679 ft 14 kts 296°
2026-05-07 15:17 60.19195 11.10775 679 ft 15 kts 286°
2026-05-07 15:18 60.19280 11.10678 677 ft 11 kts 340°